Location: Wyoming Infrared Observatory
(41.0971°N, 105.9765°W)
Time: 07:34:55
(UTC-06:00)

Daily predictions for brighter satellites

Satellite Brightness Start Highest point End
(mag) Time Altitude Azimuth Time Altitude Azimuth Time Altitude Azimuth
NOAA 12 4.1 19:18:02 10° SSE 19:23:12 68° ENE 19:28:27 10° N
Cosmos 1606 Rocket 3.7 19:20:11 10° S 19:24:24 52° E 19:28:38 10° NNE
ALOS 2.3 19:20:55 10° SSE 19:25:30 61° ENE 19:30:07 10° N
Cosmos 2058 Rocket 3.8 19:22:02 10° SSE 19:25:53 31° E 19:29:45 10° NNE
Cosmos 1953 Rocket 3.9 19:21:43 10° N 19:25:53 44° ENE 19:30:01 10° SSE
Cosmos 1271 Rocket 2.6 19:22:11 10° S 19:25:55 70° E 19:29:44 10° NNE
Cosmos 1340 Rocket 3.0 19:24:05 10° N 19:28:04 52° ENE 19:32:03 10° SSE
Thor Agena Rocket 3.7 19:23:08 10° NNE 19:28:18 53° E 19:33:21 10° S
Cosmos 1378 3.8 19:27:24 10° N 19:30:54 35° ENE 19:34:23 10° SE
FREGAT/IRIS 3.2 19:30:08 10° SE 19:32:56 36° ENE 19:35:46 10° N
CZ-4 R/B 4.3 19:30:57 10° SSW 19:34:16 23° W 19:37:38 10° NW
Cosmos 1943 4.0 19:30:12 10° SW 19:35:47 57° WNW 19:41:25 10° NNE
Cosmos 2263 4.4 19:30:28 10° NNW 19:36:06 79° WSW 19:41:44 10° SSE
SPOT 3 Rocket 4.3 19:35:59 10° S 19:41:02 56° W 19:46:07 10° NNW
Cosmos 1825 Rocket 3.8 19:40:30 10° N 19:44:55 78° W 19:49:21 10° S
Lacrosse 5 3.7 19:41:31 10° WNW 19:45:54 30° SW 19:50:16 10° S
CZ-2D R/B 4.4 19:42:57 10° ESE 19:46:01 23° ENE 19:49:05 10° NNE
Meteor 2-13 Rocket 4.4 19:44:11 10° S 19:50:11 65° E 19:56:13 10° NNE
Cosmos 1356 Rocket 4.0 19:47:00 10° N 19:51:02 37° ENE 19:55:02 10° SE
Cosmos 1898 Rocket 4.0 19:49:21 10° NNW 19:54:29 64° WSW 19:59:35 10° S
Cosmos 1814 Rocket 4.0 19:52:11 10° SSW 19:57:21 87° WNW 20:02:32 10° NNE
BREEZE-M DEB (TANK) 4.3 19:55:05 10° WNW 19:58:32 38° NNE 20:08:40 10° ENE
Cosmos 371 Rocket 4.4 19:54:00 10° SW 19:58:43 49° WNW 20:03:29 10° N
SJ-6B 2.8 19:54:54 10° SSE 19:58:53 64° ENE 20:02:48 10° N
Meteor 1-24 Rocket 4.0 19:55:56 10° N 20:01:45 50° ENE 20:07:22 10° SSE
Cosmos 990 Rocket 4.0 19:58:37 10° NNW 20:03:48 84° WSW 20:08:56 10° SSE
Cosmos 1125 Rocket 4.4 20:00:18 10° N 20:05:00 31° ENE 20:07:53 19° ESE
USA 81 4.1 20:04:10 10° N 20:09:29 85° W 20:14:45 10° S
SL-08 ROCKET BODY 4.4 20:03:58 10° S 20:09:49 89° W 20:15:49 10° N
Cosmos 2181 Rocket 4.3 20:04:26 10° NNW 20:10:37 69° W 20:16:41 10° S
Cosmos 1943 Rocket 3.3 20:08:32 10° NW 20:13:50 45° WSW 20:19:08 10° S
Envisat 3.5 20:11:57 18° SE 20:15:10 38° ENE 20:19:50 10° N
Cosmos 2150 Rocket 4.5 20:10:44 10° NNW 20:16:01 65° WSW 20:21:22 10° S
Cosmos 2154 Rocket 4.3 20:17:03 10° SSE 20:22:49 42° E 20:28:37 10° NNE
H-2A R/B 3.5 20:20:27 10° S 20:24:04 52° W 20:27:45 10° NNW
Resurs 1-3 3.7 20:23:04 22° SE 20:25:39 53° ENE 20:29:57 10° N
Cosmos 2074 Rocket 3.9 20:21:20 10° S 20:27:32 88° E 20:33:46 10° N
Cosmos 841 Rocket 4.0 20:31:36 10° SSW 20:36:41 60° WNW 20:41:47 10° NNE
Cosmos 1766 3.4 20:35:13 10° SSW 20:39:09 76° W 20:43:04 10° N
Meteor 1-22 Rocket 4.3 20:34:25 10° SSW 20:40:11 81° W 20:45:45 10° N
ATLAS 2AS CENTAUR R/B 4.1 20:36:31 10° NNW 20:43:16 28° NE 20:46:19 22° ENE
Resurs 01 Rocket 1.5 20:41:53 23° SSE 20:44:37 87° WSW 20:49:05 10° NNW
MOS 1-B Rocket 3.9 20:39:43 16° SSE 20:44:56 75° ENE 20:50:38 10° N
BREEZE-M DEB (TANK) 3.8 20:44:32 10° NNW 20:45:13 14° NNW 20:45:13 14° NNW
USA 186 3.7 20:48:27 17° NNW 20:48:27 17° NNW 20:49:08 10° NNW
COSMOS 2406 3.2 20:43:55 10° SSW 20:49:37 84° WNW 20:55:24 10° NNE
GP-B 2.9 20:47:22 10° N 20:51:50 83° E 20:53:47 33° S
Cosmos 1656 Rocket 4.4 20:46:44 10° NNW 20:52:11 51° WSW 20:57:02 13° S
Cosmos 1939 Rocket 3.2 20:53:05 47° NE 20:53:05 47° NE 20:56:14 10° N
NOSS 3-1 (A) 4.1 20:45:19 10° NW 20:53:02 84° WSW 20:58:20 26° SSE
Meteor 1-21 Rocket 4.4 20:49:51 10° N 20:55:27 50° ENE 20:56:11 47° ESE
Nadezhda 3 Rocket 3.9 20:49:14 10° N 20:55:34 73° E 20:58:49 30° SSE
Cosmos 540 Rocket 3.6 20:55:45 10° SSW 21:00:50 73° WNW 21:05:58 10° NNE
Cosmos 1812 Rocket 3.6 20:56:30 10° SSW 21:00:56 77° W 21:05:26 10° N
YAOGAN 6 4.4 21:07:04 24° N 21:07:04 24° N 21:08:40 10° N
Cosmos 1674 4.1 21:03:37 10° N 21:05:33 28° N 21:05:33 28° N
SJ-11-01 4.1 21:12:56 86° ENE 21:12:56 86° ENE 21:17:40 10° NNW
Cosmos 1805 4.2 21:14:16 32° SW 21:15:37 46° W 21:19:24 10° N
Okean 3 Rocket 4.5 21:16:38 10° N 21:19:39 41° N 21:19:39 41° N
Spot 2 Rocket 4.4 21:19:11 24° SSW 21:21:50 46° W 21:26:41 10° NNW
BREEZE M DEB (TANK) 4.3 21:19:14 10° WNW 21:22:10 19° NNW 21:22:10 19° NNW
Cosmos 1295 Rocket 4.3 21:22:26 63° SSE 21:23:26 79° E 21:29:32 10° N
SL-8 Rocket 4.3 21:31:36 51° NE 21:31:36 51° NE 21:36:20 10° NNE
Cosmos 1953 4.4 21:39:03 23° NNW 21:39:03 23° NNW 21:40:46 10° N
GEOS 3 Rocket 3.8 21:36:05 36° NNE 21:38:20 71° NW 21:43:40 10° SW
Cosmos 1809 Rocket 4.4 21:40:14 76° NNE 21:40:14 76° NNE 21:45:52 10° N
Cosmos 2278 4.3 21:36:51 10° NNW 21:41:11 49° N 21:41:11 49° N
ERS-1 Rocket 4.3 21:51:42 34° N 21:51:42 34° N 21:54:31 10° N
H-2A R/B 4.0 22:01:25 20° N 22:01:25 20° N 22:03:02 10° N
Cosmos 1697 Rocket 4.0 22:04:10 10° NNW 22:07:17 32° N 22:07:17 32° N
Cosmos 1980 Rocket 4.0 22:05:03 10° N 22:07:30 23° N 22:07:30 23° N
ATLAS 2AS CENTAUR R/B 3.3 22:27:19 10° NW 22:33:45 61° NW 22:33:45 61° NW
CZ-3A R/B 4.4 23:00:09 10° NW 23:14:44 55° N 23:14:44 55° N
